Location: *
(2.5500°S, 65.9667°W)
Time: 16:14:41
(UTC+00:00)

A-11 Canister half - Pass Details

Date: 19 April 2024
Orbit: 1525 x 1683 km, 47.3° (Epoch: 21 May)

Event Time Altitude Azimuth Distance (km) Brightness Sun altitude
Exits shadow 08:45:06 31° 293° (WNW) 2,536 9.7 -24.5°
Maximum altitude 08:46:46 33° 310° (NW) 2,476 9.7 -24.1°
Drops below altitude 10° 08:55:22 10° 11° (N) 3,893 11.4 -22.0°
Sets 08:59:02 0° 20° (NNE) 4,896 12.1 -21.1°
